Location: ??
(34.7707°N, 135.6540°E)
Time: 18:43:20
(UTC+00:00)

Cosmos 1417 Rocket - Pass Details

Date: 09 April 2020
Orbit: 952 x 998 km, 83.0° (Epoch: 05 June)

Event Time Altitude Azimuth Distance (km) Brightness Sun altitude
Rises 20:04:33 0° 350° (N) 3,636 7.6 -6.4°
Reaches altitude 10° 20:07:03 10° 348° (NNW) 2,685 6.9 -5.9°
Maximum altitude 20:13:08 68° 267° (W) 1,021 4.5 -4.7°
Drops below altitude 10° 20:19:10 10° 185° (S) 2,673 6.6 -3.5°
Sets 20:21:40 0° 183° (S) 3,619 7.3 -3.0°
